map of KPBH home
Great Circle Mapper logo
KPBH - Airport
Location
City:  Phillips, Wisconsin, United States
Name:Price County Airport
ICAO:KPBH
FAA:PBH

Details
Type:Airport (Airfield)
Use:Public/Civil
Latitude:4542'32"N (45.708944)
Longitude:9024'09"W (-90.402499)
Datum:WGS 1984
Elevation:1496 ft (456 m)
Variation:2.16W (WMM2015 magnetic declination)
-0.05 annual change
Runways:2
Longest:5000 × 75 ft (1524 × 23 m), paved

Time
Time Zone:UTC-6 (DST-5)
Local Time:

Weather
METAR:KPBH 301535Z AUTO 20005KT 10SM OVC007 18/17 A3003 RMK AO2 T01800167

Related Locations
Nearby:
Farthest:MGV: 10867 mi / 17489 km
Margaret River, WA, AU

Find:

   beyond  
but within

Other Information
Maps:
NOTAMs:
Links:
Sources:

  
flag of United States
flag of Wisconsin
  

Sectional Chart

Flight Planning
at skyvector.com

Satellite Image

Google Maps Satellite view

 

Copyright © 2004-2015 Karl L. Swartz. All rights reserved.
The Great Circle Mapper name and logo are trademarks of the Great Circle Mapper.
All other trademarks mentioned herein belong to their respective owners.
Please see credits for attibutions and further copyright information.

  Follow gcmap on Facebook Follow gcmap on Twitter Follow gcmap on Google+

hCard Microformat

Geo Microformat